KD7MPG-3 Weather Reports


time (UTC)temp
C
wind
direction
speed
KPH
gust
KPH
rain 1hr
cm
rain 24hr
cm
rain mn
cm
humidity
%
barometer
mb
20260904195835 17 158 3.2 14.5 0.03 1.32 0.41 81 1021.2
20260904195335 17 135 1.6 8.0 0.03 1.32 0.41 83 1021.2
20260904194841 17 132 1.6 6.4 0.03 1.32 0.41 85 1021.4
20260904194335 17 109 3.2 6.4 0.00 1.30 0.38 83 1021.4
20260904193836 17 109 3.2 6.4 0.00 1.30 0.38 86 1021.5
20260904193332 17 109 1.6 6.4 0.00 1.30 0.38 87 1021.6
20260904192831 17 113 1.6 4.8 0.00 1.30 0.38 86 1021.6
20260904192331 16 98 1.6 4.8 0.00 1.30 0.38 86 1021.6
20260904191831 16 98 1.6 4.8 0.00 1.30 0.38 87 1021.6
20260904191329 16 103 0.0 4.8 0.00 1.30 0.38 87 1021.8
20260904190828 16 105 1.6 6.4 0.00 1.30 0.38 86 1021.7
20260904190326 16 105 1.6 6.4 0.00 1.30 0.38 86 1021.7
20260904185825 16 143 1.6 6.4 0.00 1.30 0.38 85 1021.8
20260904185323 16 126 3.2 16.1 0.00 1.30 0.38 85 1021.9
20260904184823 16 121 1.6 16.1 0.00 1.30 0.38 84 1021.9
20260904184323 16 99 0.0 4.8 0.00 1.30 0.38 86 1021.8
20260904183823 16 91 1.6 4.8 0.00 1.30 0.38 86 1021.6
20260904183322 16 94 1.6 6.4 0.00 1.30 0.38 86 1021.5
20260904182821 16 82 1.6 6.4 0.00 1.30 0.38 87 1021.4
20260904182322 16 70 1.6 4.8 0.00 1.30 0.38 86 1021.5
20260904181818 16 96 1.6 4.8 0.00 1.30 0.38 87 1021.4
20260904181317 16 69 1.6 4.8 0.00 1.30 0.38 86 1021.5
20260904180817 16 65 1.6 4.8 0.00 1.30 0.38 87 1021.4
20260904180311 16 49 0.0 4.8 0.00 1.30 0.38 87 1021.4
20260904175811 16 13 1.6 4.8 0.00 1.30 0.38 86 1021.3
20260904175311 15 12 1.6 4.8 0.00 1.30 0.38 87 1021.4
20260904174812 15 347 0.0 3.2 0.00 1.30 0.38 87 1021.4
20260904174310 15 69 0.0 3.2 0.00 1.30 0.38 87 1021.3
20260904173812 15 77 0.0 1.6 0.00 1.30 0.38 88 1021.3
20260904173309 15 76 0.0 1.6 0.00 1.32 0.38 88 1021.2
20260904172809 15 76 1.6 4.8 0.00 1.32 0.38 88 1021.0
20260904172308 15 77 1.6 4.8 0.00 1.32 0.38 88 1021.0
20260904171809 15 286 0.0 3.2 0.00 1.35 0.38 89 1020.9
20260904171308 15 286 0.0 3.2 0.00 1.37 0.38 88 1021.0
20260904170806 15 286 1.6 4.8 0.00 1.40 0.38 88 1020.9
20260904170308 15 286 1.6 4.8 0.00 1.42 0.38 89 1020.8
20260904165801 15 46 0.0 3.2 0.00 1.45 0.38 89 1020.8
20260904165305 14 47 0.0 4.8 0.00 1.45 0.38 90 1020.7
20260904164800 14 72 0.0 4.8 0.00 1.47 0.38 90 1020.9
20260904164301 14 73 0.0 4.8 0.00 1.47 0.38 90 1020.8
20260904163801 14 316 1.6 4.8 0.00 1.47 0.38 90 1020.6
20260904163301 14 316 1.6 4.8 0.00 1.47 0.38 91 1020.7
20260904162756 14 24 0.0 4.8 0.00 1.47 0.38 91 1020.6
20260904162254 13 23 0.0 4.8 0.00 1.47 0.38 90 1020.6
20260904161752 13 54 1.6 4.8 0.00 1.47 0.38 91 1020.6
20260904161253 13 65 1.6 4.8 0.00 1.47 0.38 92 1020.7
20260904160752 13 59 0.0 4.8 0.00 1.47 0.38 92 1020.7
20260904160254 13 60 0.0 4.8 0.00 1.47 0.38 92 1020.7
20260904155751 13 60 0.0 4.8 0.00 1.47 0.38 92 1020.7
20260904155252 13 61 0.0 4.8 0.03 1.47 0.38 92 1020.6
20260904154751 13 60 0.0 4.8 0.03 1.47 0.38 92 1020.5
20260904154250 13 59 0.0 4.8 0.05 1.47 0.38 92 1020.5
20260904153751 13 57 0.0 4.8 0.05 1.47 0.38 92 1020.5
20260904153252 13 58 0.0 4.8 0.05 1.47 0.38 92 1020.4
20260904152751 12 57 0.0 4.8 0.05 1.47 0.38 92 1020.4
20260904152250 12 344 0.0 3.2 0.05 1.47 0.38 92 1020.3
20260904151752 12 343 0.0 3.2 0.05 1.47 0.38 92 1020.4
20260904151250 12 344 0.0 3.2 0.05 1.47 0.38 92 1020.4
20260904150752 12 0 0.0 3.2 0.05 1.47 0.38 92 1020.3
20260904150250 12 344 0.0 3.2 0.05 1.47 0.38 92 1020.2
20260904145750 12 344 0.0 3.2 0.08 1.47 0.38 92 1020.2
20260904145250 12 344 0.0 1.6 0.05 1.45 0.36 92 1020.2
20260904144752 12 342 0.0 1.6 0.05 1.45 0.36 92 1020.3
20260904144247 12 342 0.0 3.2 0.03 1.42 0.33 92 1020.2
20260904143746 12 342 1.6 4.8 0.05 1.42 0.33 92 1020.1
20260904143247 12 15 1.6 4.8 0.05 1.42 0.33 92 1020.0
20260904142746 12 34 0.0 3.2 0.05 1.42 0.33 92 1019.9
20260904142247 12 38 0.0 1.6 0.05 1.42 0.33 92 1020.1
20260904141746 12 38 0.0 1.6 0.05 1.42 0.33 92 1020.0
20260904141243 12 38 0.0 1.6 0.05 1.42 0.33 92 1019.9
20260904140742 12 38 0.0 1.6 0.05 1.42 0.33 92 1019.8
20260904140243 12 38 0.0 4.8 0.05 1.42 0.33 92 1019.8
20260904135742 12 38 0.0 4.8 0.03 1.42 0.30 92 1019.6
20260904135242 12 40 0.0 1.6 0.03 1.45 0.30 92 1019.6
20260904134742 12 41 0.0 1.6 0.03 1.47 0.30 92 1019.6
20260904134238 12 40 0.0 1.6 0.03 1.52 0.30 92 1019.5
20260904133738 12 41 0.0 1.6 0.00 1.52 0.28 92 1019.5
20260904133238 12 41 0.0 3.2 0.00 1.52 0.28 92 1019.4
20260904132738 12 40 0.0 3.2 0.00 1.55 0.28 92 1019.3
20260904132238 12 40 0.0 1.6 0.00 1.60 0.28 92 1019.3
20260904131738 12 40 0.0 1.6 0.00 1.70 0.28 92 1019.3
20260904131233 12 41 0.0 1.6 0.00 1.75 0.28 92 1019.2
20260904130732 12 40 0.0 3.2 0.00 1.78 0.28 92 1019.2
20260904130233 12 40 0.0 3.2 0.00 1.78 0.28 92 1019.2
20260904125731 12 40 0.0 0.0 0.00 1.78 0.28 92 1019.2
20260904125231 12 40 0.0 0.0 0.00 1.80 0.28 92 1019.1
20260904124731 12 40 0.0 0.0 0.00 1.80 0.28 92 1019.2
20260904124225 12 40 0.0 1.6 0.00 1.80 0.28 92 1019.2
20260904123724 12 40 0.0 3.2 0.00 1.80 0.28 92 1019.1
20260904123220 12 40 0.0 3.2 0.00 1.80 0.28 92 1019.1
20260904122718 12 40 0.0 3.2 0.00 1.80 0.28 92 1019.2
20260904122218 12 40 0.0 1.6 0.00 1.80 0.28 92 1019.1
20260904121714 12 41 0.0 1.6 0.00 1.80 0.28 92 1019.0
20260904121213 12 40 0.0 1.6 0.00 1.80 0.28 92 1019.0
20260904120712 12 42 0.0 1.6 0.00 1.80 0.28 92 1019.1
20260904120212 12 41 0.0 1.6 0.00 1.80 0.28 92 1019.0
20260904115712 12 42 0.0 1.6 0.00 1.80 0.28 92 1019.0
20260904115213 12 41 0.0 1.6 0.00 1.80 0.28 92 1018.9
20260904114708 12 42 0.0 1.6 0.00 1.80 0.28 92 1018.8
20260904114209 12 42 0.0 1.6 0.00 1.80 0.28 92 1018.8
20260904113708 12 42 0.0 0.0 0.00 1.80 0.28 92 1018.7
20260904113208 12 41 0.0 0.0 0.00 1.80 0.28 92 1018.8
20260904112706 12 41 0.0 0.0 0.03 1.80 0.28 92 1018.7
20260904112206 12 42 0.0 0.0 0.03 1.80 0.28 92 1018.5
20260904111700 12 42 0.0 0.0 0.03 1.80 0.28 92 1018.5
20260904111158 12 42 0.0 1.6 0.03 1.80 0.28 92 1018.4
20260904110656 12 42 0.0 1.6 0.05 1.80 0.28 92 1018.5
20260904110155 12 42 0.0 1.6 0.05 1.80 0.28 92 1018.5
20260904105654 12 42 0.0 1.6 0.05 1.80 0.28 92 1018.4
20260904105149 12 42 0.0 4.8 0.08 1.80 0.28 92 1018.3
20260904104649 12 41 1.6 6.4 0.08 1.80 0.28 92 1018.3
20260904104148 12 42 1.6 6.4 0.08 1.80 0.28 92 1018.1
20260904103648 12 82 0.0 4.8 0.08 1.80 0.28 92 1018.2
20260904103148 12 104 0.0 1.6 0.08 1.80 0.28 92 1018.2
20260904102648 12 106 0.0 1.6 0.05 1.78 0.28 92 1018.2
20260904102146 12 105 0.0 0.0 0.05 1.78 0.25 92 1018.3
20260904101644 12 105 0.0 0.0 0.05 1.78 0.25 92 1018.3
20260904101145 12 105 0.0 1.6 0.05 1.78 0.25 92 1018.3
20260904100644 12 105 0.0 3.2 0.05 1.75 0.23 92 1018.2
20260904100142 12 105 0.0 3.2 0.05 1.75 0.23 92 1018.3
20260904095642 12 105 0.0 0.0 0.05 1.75 0.23 92 1018.3
20260904095136 12 105 0.0 1.6 0.05 1.73 0.20 92 1018.4
20260904094635 12 105 0.0 1.6 0.08 1.73 0.20 92 1018.3
20260904094136 12 106 0.0 4.8 0.10 1.73 0.20 92 1018.3
20260904093636 12 105 0.0 4.8 0.13 1.73 0.20 92 1018.2
20260904093135 12 75 0.0 3.2 0.13 1.73 0.20 92 1018.3
20260904092637 12 76 0.0 3.2 0.15 1.73 0.20 92 1018.2
20260904092135 12 76 0.0 3.2 0.15 1.73 0.20 92 1018.3
20260904091632 12 76 0.0 4.8 0.18 1.73 0.20 92 1018.3
20260904091133 12 76 1.6 4.8 0.18 1.73 0.20 92 1018.3
20260904090633 12 76 1.6 4.8 0.18 1.70 0.18 92 1018.4
20260904090130 12 101 1.6 4.8 0.18 1.70 0.18 92 1018.5
20260904085630 12 102 0.0 4.8 0.18 1.70 0.18 92 1018.4
20260904085124 12 98 0.0 4.8 0.15 1.68 0.15 92 1018.4
20260904084624 12 92 0.0 4.8 0.13 1.65 0.13 92 1018.4
20260904084123 12 93 0.0 3.2 0.10 1.63 0.10 92 1018.4
20260904083625 12 98 0.0 3.2 0.08 1.60 0.10 92 1018.4
20260904083124 12 99 0.0 3.2 0.08 1.60 0.08 92 1018.2
20260904082624 12 98 0.0 1.6 0.05 1.57 0.05 92 1018.3
20260904082120 12 98 0.0 1.6 0.05 1.57 0.05 92 1018.2
20260904081620 12 99 0.0 1.6 0.03 1.55 0.03 92 1018.3
20260904081118 12 98 0.0 1.6 0.03 1.55 0.03 92 1018.4
20260904080619 12 99 0.0 0.0 0.00 1.52 0.00 92 1018.3
20260904080118 12 99 0.0 0.0 0.00 1.52 0.00 92 1018.3
20260904075618 12 99 0.0 0.0 0.00 1.52 0.00 92 1018.3
20260904075116 12 98 0.0 0.0 0.00 1.52 0.00 92 1018.4
20260904074617 12 98 0.0 0.0 0.00 1.52 0.00 92 1018.3
20260904074115 12 99 0.0 0.0 0.00 1.52 0.00 92 1018.4
20260904073612 12 98 0.0 0.0 0.00 1.52 0.00 92 1018.2
20260904073110 12 99 0.0 0.0 0.00 1.52 0.00 92 1018.2
20260904072611 12 98 0.0 0.0 0.00 1.52 0.00 92 1018.2
20260904072108 12 99 0.0 0.0 0.00 1.52 0.00 92 1018.2
20260904071606 12 98 0.0 0.0 0.00 1.52 0.00 92 1018.3
20260904071107 12 98 0.0 0.0 0.00 1.52 0.00 92 1018.2
20260904070607 12 99 0.0 0.0 0.00 1.52 0.00 92 1018.2
20260904070104 12 100 0.0 0.0 0.00 1.52 0.00 92 1018.1
20260904065603 12 99 0.0 0.0 0.00 1.52 1.52 92 1018.1
20260904065104 12 100 0.0 0.0 0.00 1.52 1.52 92 1018.2
20260904064600 12 98 0.0 0.0 0.00 1.52 1.52 92 1018.1
20260904064101 12 99 0.0 0.0 0.00 1.52 1.52 92 1018.2
20260904063600 12 99 0.0 0.0 0.00 1.52 1.52 91 1018.0
20260904063058 12 98 0.0 0.0 0.00 1.52 1.52 91 1018.1
20260904062559 12 99 0.0 0.0 0.00 1.52 1.52 91 1018.0
20260904062056 12 99 0.0 0.0 0.00 1.52 1.52 91 1018.1
20260904061554 12 98 0.0 0.0 0.00 1.52 1.52 91 1018.1
20260904061055 12 98 0.0 1.6 0.00 1.52 1.52 91 1018.1
20260904060559 12 99 0.0 3.2 0.00 1.52 1.52 91 1018.1
20260904060052 12 98 0.0 3.2 0.00 1.52 1.52 91 1018.0
20260904055553 12 98 0.0 0.0 0.00 1.52 1.52 91 1018.0
20260904055045 12 98 0.0 0.0 0.00 1.52 1.52 91 1018.0
20260904054547 12 98 0.0 0.0 0.00 1.52 1.52 91 1018.0
20260904054045 12 99 0.0 0.0 0.00 1.52 1.52 91 1017.9
20260904053547 12 98 0.0 0.0 0.00 1.52 1.52 91 1018.0
20260904053046 12 98 0.0 0.0 0.00 1.52 1.52 91 1018.0
20260904052545 12 98 0.0 3.2 0.00 1.52 1.52 91 1018.0
20260904052043 12 99 0.0 3.2 0.00 1.52 1.52 91 1018.0
20260904051542 12 98 0.0 0.0 0.00 1.52 1.52 91 1018.1
20260904051040 12 97 0.0 0.0 0.00 1.52 1.52 91 1018.1
20260904050539 12 98 0.0 0.0 0.00 1.52 1.52 91 1018.2
20260904050040 12 98 0.0 1.6 0.00 1.52 1.52 91 1018.1
20260904045540 12 97 0.0 1.6 0.00 1.52 1.52 91 1018.2
20260904045034 12 98 0.0 1.6 0.00 1.52 1.52 91 1018.2
20260904044533 12 98 0.0 1.6 0.00 1.52 1.52 91 1018.2
20260904044030 12 98 0.0 0.0 0.00 1.52 1.52 91 1018.1
20260904043528 12 98 0.0 3.2 0.03 1.52 1.52 91 1018.2
20260904043028 12 98 0.0 4.8 0.03 1.52 1.52 91 1018.2
20260904042522 12 98 0.0 4.8 0.03 1.52 1.52 91 1018.2
20260904042022 12 98 0.0 3.2 0.03 1.52 1.52 91 1018.1
20260904041523 12 98 0.0 3.2 0.03 1.52 1.52 91 1018.1
20260904041021 12 98 0.0 3.2 0.03 1.52 1.52 91 1018.1
20260904040521 12 99 0.0 4.8 0.05 1.52 1.52 91 1018.2
20260904040021 12 98 1.6 6.4 0.05 1.52 1.52 91 1018.2
20260904035522 12 81 1.6 6.4 0.05 1.52 1.52 91 1018.3
20260904035016 12 101 1.6 4.8 0.05 1.52 1.52 91 1018.2
20260904034517 12 129 1.6 6.4 0.05 1.52 1.52 90 1018.1
20260904034016 12 134 1.6 6.4 0.08 1.52 1.52 91 1018.2
20260904033515 13 110 1.6 4.8 0.10 1.50 1.50 91 1018.1
20260904033015 13 117 1.6 4.8 0.15 1.50 1.50 91 1018.1
20260904032517 13 142 1.6 4.8 0.18 1.50 1.50 91 1018.0
20260904032010 13 136 1.6 11.3 0.18 1.50 1.50 91 1018.1
20260904031512 13 154 1.6 11.3 0.20 1.50 1.50 91 1018.1
20260904031009 13 181 3.2 11.3 0.20 1.50 1.50 91 1018.1
20260904030509 13 136 3.2 11.3 0.18 1.47 1.47 91 1018.1
20260904030008 13 149 3.2 8.0 0.18 1.47 1.47 91 1018.1
20260904025507 13 149 3.2 11.3 0.18 1.47 1.47 91 1018.1
20260904025008 13 159 4.8 11.3 0.18 1.47 1.47 91 1018.1
20260904024505 13 167 3.2 11.3 0.18 1.47 1.47 91 1018.2
20260904024006 13 182 1.6 11.3 0.15 1.45 1.45 91 1018.2
20260904023506 13 170 1.6 9.7 0.10 1.40 1.40 90 1018.0
20260904023002 13 159 1.6 8.0 0.05 1.35 1.37 90 1018.0
20260904022501 13 158 1.6 8.0 0.03 1.32 1.32 90 1018.0
20260904022003 13 165 1.6 8.0 0.03 1.32 1.32 90 1018.0
20260904021501 13 165 1.6 9.7 0.00 1.30 1.30 90 1018.0
20260904021001 13 161 1.6 9.7 0.00 1.30 1.30 89 1018.1
20260904020503 13 188 1.6 6.4 0.00 1.30 1.30 90 1018.1
20260904015957 13 159 1.6 4.8 0.03 1.30 1.30 89 1018.1
20260904015459 13 140 1.6 6.4 0.03 1.30 1.30 89 1018.1
20260904014957 13 122 0.0 6.4 0.03 1.30 1.30 89 1018.0
20260904014458 13 152 1.6 6.4 0.03 1.30 1.30 89 1018.0
20260904013957 13 153 1.6 6.4 0.03 1.30 1.30 89 1017.9
20260904013459 13 158 1.6 8.0 0.03 1.32 1.30 88 1018.0
20260904012955 13 163 3.2 8.0 0.03 1.32 1.30 88 1017.9
20260904012454 13 151 3.2 11.3 0.03 1.32 1.30 88 1017.9
20260904011953 14 143 3.2 11.3 0.03 1.32 1.30 88 1017.8
20260904011454 14 196 1.6 6.4 0.03 1.32 1.30 89 1017.9
20260904010954 14 158 3.2 12.9 0.05 1.32 1.30 88 1018.0
20260904010454 14 172 3.2 12.9 0.10 1.32 1.30 89 1017.9
20260904005951 14 128 3.2 11.3 0.10 1.30 1.27 89 1017.8
20260904005451 14 121 3.2 12.9 0.13 1.30 1.27 89 1017.7
20260904004952 15 146 3.2 12.9 0.15 1.30 1.27 89 1017.7
20260904004452 15 130 3.2 9.7 0.15 1.35 1.27 90 1017.8
20260904003951 15 135 3.2 11.3 0.15 1.35 1.27 90 1017.8
20260904003452 15 146 3.2 11.3 0.15 1.37 1.27 90 1017.8
20260904002948 15 126 1.6 8.0 0.15 1.37 1.27 90 1017.9
20260904002447 15 117 0.0 3.2 0.15 1.37 1.27 90 1017.9
20260904001947 15 117 0.0 3.2 0.15 1.37 1.27 89 1018.0
20260904001447 15 117 1.6 4.8 0.15 1.37 1.27 89 1017.9
20260904000948 15 117 1.6 4.8 0.13 1.35 1.24 89 1018.1
20260904000448 15 116 1.6 4.8 0.08 1.30 1.22 89 1018.2
20260903235948 15 117 1.6 6.4 0.08 1.27 1.17 88 1018.2
20260903235445 15 117 3.2 6.4 0.05 1.24 1.14 88 1018.1
20260903234943 15 103 1.6 6.4 0.05 1.22 1.12 88 1018.0
20260903234441 15 143 1.6 8.0 0.08 1.22 1.12 89 1017.9
20260903233941 15 144 1.6 8.0 0.08 1.22 1.12 89 1017.9
20260903233441 15 148 1.6 6.4 0.10 1.22 1.12 88 1018.0
20260903232942 15 159 1.6 4.8 0.10 1.22 1.12 89 1018.1
20260903232439 15 154 1.6 4.8 0.10 1.22 1.12 90 1018.1
20260903231937 14 149 1.6 4.8 0.10 1.22 1.12 90 1018.1
20260903231437 14 151 1.6 4.8 0.10 1.27 1.12 90 1018.1
20260903230937 13 157 0.0 4.8 0.10 1.42 1.12 90 1018.1
20260903230435 13 155 0.0 3.2 0.10 1.45 1.12 90 1018.1
20260903225935 13 155 0.0 4.8 0.10 1.45 1.09 90 1018.2
20260903225431 13 155 0.0 4.8 0.10 1.45 1.09 90 1018.3
20260903224929 13 139 1.6 6.4 0.13 1.45 1.07 90 1018.4
20260903224429 13 273 1.6 6.4 0.15 1.45 1.04 90 1018.4
20260903223930 13 264 1.6 6.4 0.18 1.45 1.04 90 1018.3
20260903223429 13 227 1.6 4.8 0.20 1.45 1.02 89 1018.4
20260903222930 13 227 1.6 4.8 0.30 1.47 1.02 90 1018.2
20260903222424 13 178 3.2 8.0 0.33 1.47 1.02 90 1018.3
20260903221923 13 180 3.2 8.0 0.38 1.47 1.02 90 1018.3
20260903221423 13 186 0.0 4.8 0.38 1.50 1.02 90 1018.2
20260903220923 12 129 0.0 3.2 0.41 1.50 1.02 91 1018.3
20260903220428 12 129 0.0 1.6 0.41 1.50 1.02 90 1018.3
20260903215923 12 130 0.0 1.6 0.38 1.47 0.99 89 1018.3
20260903215420 12 130 1.6 8.0 0.38 1.47 0.99 89 1018.3
20260903214920 12 128 1.6 11.3 0.33 1.42 0.94 89 1018.7
20260903214417 12 203 1.6 11.3 0.28 1.40 0.91 88 1018.7
20260903213917 13 175 3.2 12.9 0.23 1.35 0.86 88 1018.9
20260903213417 13 201 3.2 12.9 0.20 1.32 0.81 88 1019.0
20260903212917 13 229 1.6 6.4 0.10 1.22 0.71 88 1018.8
20260903212415 13 217 3.2 8.0 0.05 1.17 0.69 87 1018.8
20260903211913 13 225 4.8 14.5 0.03 1.17 0.66 86 1018.7
20260903211411 14 241 4.8 14.5 0.03 1.17 0.64 85 1018.7
20260903210911 14 263 3.2 8.0 0.00 1.14 0.61 84 1018.7
20260903210411 14 255 3.2 11.3 0.00 1.14 0.61 84 1018.5
20260903205912 14 271 4.8 12.9 0.00 1.14 0.61 83 1018.5
20260903205408 14 289 4.8 12.9 0.00 1.17 0.61 83 1018.3
20260903204907 14 248 3.2 12.9 0.00 1.17 0.61 82 1018.4
20260903204405 15 260 3.2 16.1 0.00 1.17 0.61 83 1018.3
20260903203905 15 207 4.8 16.1 0.00 1.17 0.61 83 1018.5
20260903203405 15 245 6.4 16.1 0.00 1.17 0.61 83 1018.5
20260903202906 15 257 6.4 16.1 0.00 1.17 0.61 84 1018.7
20260903202400 15 166 4.8 12.9 0.00 1.17 0.61 85 1018.7
20260903201859 15 161 4.8 14.5 0.00 1.17 0.61 86 1018.5
20260903201359 15 181 4.8 14.5 0.00 1.17 0.61 86 1018.5
20260903200859 15 148 4.8 14.5 0.00 1.17 0.61 87 1018.5
20260903200359 15 134 4.8 17.7 0.00 1.17 0.61 87 1018.5